TimeMST,TemperatureF,Dew PointF,Humidity,Sea Level PressureIn,VisibilityMPH,Wind Direction,Wind SpeedMPH,Gust SpeedMPH,PrecipitationIn,Events,Conditions,WindDirDegrees,DateUTC
12:55 AM,5.0,-4.0,66,30.19,10.0,NW,4.6,-,N/A,,Clear,310,2013-01-15 07:55:00
1:55 AM,5.0,-4.0,66,30.19,10.0,WNW,9.2,-,N/A,,Clear,300,2013-01-15 08:55:00
2:18 AM,6.8,-2.2,67,30.06,10.0,West,13.8,-,N/A,,Clear,270,2013-01-15 09:18:00
2:55 AM,6.1,-4.0,63,30.18,10.0,West,12.7,-,N/A,,Clear,280,2013-01-15 09:55:00
3:55 AM,5.0,-5.1,63,30.17,10.0,West,12.7,-,N/A,,Clear,260,2013-01-15 10:55:00
4:55 AM,5.0,-4.0,66,30.15,10.0,West,13.8,-,N/A,,Clear,270,2013-01-15 11:55:00
5:55 AM,3.9,-5.1,66,30.16,10.0,West,12.7,-,N/A,,Clear,260,2013-01-15 12:55:00
6:55 AM,5.0,-5.1,63,30.16,10.0,WSW,12.7,-,N/A,,Mostly Cloudy,250,2013-01-15 13:55:00
7:55 AM,7.0,-2.9,64,30.17,10.0,West,13.8,-,N/A,,Mostly Cloudy,270,2013-01-15 14:55:00
8:55 AM,10.9,-0.0,61,30.16,10.0,West,9.2,-,N/A,,Overcast,270,2013-01-15 15:55:00
9:46 AM,15.8,3.2,58,30.03,10.0,West,12.7,-,N/A,,Overcast,260,2013-01-15 16:46:00
9:55 AM,15.1,3.0,59,30.15,10.0,WSW,10.4,-,N/A,,Overcast,250,2013-01-15 16:55:00
10:55 AM,18.0,7.0,62,30.13,10.0,WSW,10.4,-,N/A,,Overcast,250,2013-01-15 17:55:00
11:55 AM,21.0,10.0,63,30.10,10.0,WSW,11.5,-,N/A,,Overcast,250,2013-01-15 18:55:00
12:55 PM,23.0,12.9,65,30.06,10.0,SW,8.1,-,N/A,,Overcast,230,2013-01-15 19:55:00
1:55 PM,26.1,17.1,69,30.04,10.0,WSW,9.2,-,N/A,,Overcast,240,2013-01-15 20:55:00
2:22 PM,26.6,19.4,74,29.93,10.0,SW,8.1,-,N/A,,Overcast,230,2013-01-15 21:22:00
2:55 PM,28.0,19.9,72,30.03,10.0,WSW,8.1,-,N/A,,Overcast,250,2013-01-15 21:55:00
3:19 PM,28.4,19.4,69,29.93,10.0,SW,11.5,-,N/A,,Overcast,230,2013-01-15 22:19:00
3:53 PM,28.4,21.2,74,29.93,10.0,WSW,13.8,-,N/A,,Overcast,250,2013-01-15 22:53:00
3:55 PM,28.9,21.0,72,30.03,10.0,WSW,15.0,-,N/A,,Overcast,250,2013-01-15 22:55:00
4:55 PM,28.9,23.0,78,30.01,10.0,West,12.7,-,0.00,Snow,Light Snow,260,2013-01-15 23:55:00
5:22 PM,28.4,24.8,86,29.91,2.5,WSW,13.8,-,0.00,Snow,Light Snow,250,2013-01-16 00:22:00
5:55 PM,28.9,27.0,92,30.01,2.5,West,16.1,-,0.01,Snow,Light Snow,260,2013-01-16 00:55:00
6:19 PM,30.2,28.4,93,29.89,4.0,WSW,15.0,-,0.01,Snow,Light Snow,250,2013-01-16 01:19:00
6:55 PM,30.9,28.9,92,29.98,9.0,WSW,18.4,24.2,0.01,Snow,Light Snow,250,2013-01-16 01:55:00
7:55 PM,33.1,30.0,89,29.95,10.0,WSW,12.7,-,0.00,,Overcast,250,2013-01-16 02:55:00
8:55 PM,34.0,30.0,85,29.94,10.0,WSW,15.0,-,N/A,,Overcast,250,2013-01-16 03:55:00
9:55 PM,39.0,28.9,67,29.91,10.0,WNW,19.6,-,N/A,,Overcast,300,2013-01-16 04:55:00
10:55 PM,39.0,28.9,67,29.91,10.0,WNW,13.8,-,N/A,,Overcast,300,2013-01-16 05:55:00
11:55 PM,37.9,28.9,70,29.92,10.0,WNW,15.0,-,N/A,,Mostly Cloudy,290,2013-01-16 06:55:00